SL-12 R/B(2), 33383

Orbit data source: Space-Track

SL-12 R/B(2), 33383 is space debris in MEO originally from a launch on Thu, 25 Sep 2008 UTC launched from the Tyuratam Missile And Space Complex (TTMTR). Debris objects in space refer to the collection of defunct objects orbiting the Earth. Examples of debris include non-operational satellites, rocket bodies, and fragments generated from explosions, collisions, or faulty payload assembly.

Loading next visibility...
Identifier
33383, 2008-046F
Orbit
MEO
Country
Flag of CISCIS
Related business
Manufacturer
RKKE
Mission
Spacecraft
Bus & Motor
BLOK DM2, 11D58M
Mass
2,440 kg wet, 2,440 kg dry
Launch date (UTC)
2008-09-25 (18 years ago)
Launch vehicle
Unknown
Launch site
Tyuratam Missile And Space Complex (TTMTR)
Object type
Payload
Rocket body
Debris
Shape & HBR
Cyl, 3.1 m
Radar Cross Section
23.684 m², Large (>1 m²)

Expand to show TLE details & history
Last TLE update: 4 days ago

TLE from 4 days ago
0 SL-12 R/B(2)
1 33383U 08046F   26169.38699791 -.00000055  00000-0  00000+0 0  9994
2 33383  65.4608 314.5092 0020489 197.0564 139.6558  2.13271702138082
Epoch: 2026-06-18T09:17Z
TLE epoch observation values (Epoch: 2026-06-18T09:17:16.619Z)
Latitude
-20.96298°
Longitude
-101.51301°
Altitude
19,162.088 km
Speed
3.948 km/s
True Right ascension
20h 17m 44s
True Declination
-20° 55' 51"
Sunlit
Object was in daylight at epoch
Visualization orbit readout
Latitude
Unknown
Longitude
Unknown
Altitude
Unknown
Speed
Unknown
Apparent Right ascension
Unknown
Apparent Declination
Unknown
Sunlit
N/A
Visualization observer readout
Local Sidereal Time
23:27:09
Azimuth
Unknown
Elevation
Unknown
Doppler factor
Unknown
Orbital elements
Apogee altitude
19,168.188 km
Perigee altitude
19,063.718 km
Semi-major axis
25,494.09 km
Eccentricity
0.00205
Inclination
65.4608°
RAAN
314.5092°
Arg. of periapsis
197.0564°
True anomaly
139.8075°
Mean anomaly
139.6558°
Eccentric anomaly
139.73168°
Mean motion
0.53319 °/min
Orbital period
675.18 mins
BSTAR
0
Loading maneuver chart data...
Computing Atmospheric mass density...
Loading historical data...
Loading historical data...
Loading historical data...
Loading historical data...
Loading historical data...
Loading historical data...
Loading historical data...

Documentation

Showing up to 5 results
|